Retour au catalogue

ASTRA 1A

ActifCommunicationsGEO
NORAD 19688·PAYLOAD·🇱🇺 Luxembourg

Lancé Dec 11, 1988 depuis Guiana Space Centre

Loading…

TLE

FraisSource: Space-Track

Époque: Sep 14, 2026, 10:35 UTC

1 19688U 88109B   26257.44113791 -.00000055  00000-0  00000-0 0  9991
2 19688  14.8302   5.3370 0015930 140.0505  50.5193  0.98338658116969

Suivez ASTRA 1A en temps réel avec AllMySat

Download on the App Store